MPEC 2006-S68 : 2006 SN131
The following Minor Planet Electronic Circular may be linked-to from your own Web pages, but must not otherwise be redistributed electronically.A form allowing access to any MPEC is at the bottom of this page.


M.P.E.C. 2006-S68 Issued 2006 Sept. 27, 13:31 UT The Minor Planet Electronic Circulars contain information on unusual minor planets and routine data on comets. They are published on behalf of Commission 20 of the International Astronomical Union by the Minor Planet Center, Smithsonian Astrophysical Observatory, Cambridge, MA 02138, U.S.A. Supported in part by the Brinson Foundation Supported in part by the TABASGO Foundation Prepared using the Tamkin Foundation Computer Network MPC@CFA.HARVARD.EDU URL http://cfa-www.harvard.edu/iau/mpc.html ISSN 1523-6714 2006 SN131 Observations: K06SD1N* C2006 09 26.17894 22 47 04.01 -10 52 06.8 19.0 ES068704 K06SD1N C2006 09 26.19110 22 47 26.44 -10 43 48.3 19.0 ES068704 K06SD1N C2006 09 26.20326 22 47 49.02 -10 35 29.0 18.9 ES068704 K06SD1N C2006 09 26.21542 22 48 11.67 -10 27 07.9 19.1 ES068704 K06SD1N C2006 09 27.21955 23 23 47.00 +01 54 08.5 18.6 V ES068703 K06SD1N C2006 09 27.22008 23 23 47.76 +01 54 28.8 17.6 V ES068703 K06SD1N C2006 09 27.22060 23 23 49.02 +01 54 56.0 17.9 V ES068703 K06SD1N C2006 09 27.22112 23 23 49.99 +01 55 19.0 18.0 V ES068703 Observer details: 703 Catalina Sky Survey. Observer R. E. Hill. Measurers E. C. Beshore, E. J. Christensen, G. J. Garradd, A. R. Gibbs, A. D. Grauer, R. E. Hill, R. A. Kowalski, S. M. Larson, R. H. McNaught. 0.68-m Schmidt + CCD. 704 Lincoln Laboratory ETS, New Mexico. Observers M. Bezpalko, L. Manguso, D. Torres, R. Kracke, H. Love, G. Spitz, J. Kistler. Measurers J. Stuart, J. Kommers. 1.0-m f/2.15 reflector + CCD. Orbital elements: 2006 SN131 Earth MOID = 0.0150 AU Epoch 2006 Sept. 22.0 TT = JDT 2454000.5 MPC M 358.18061 (2000.0) P Q n 0.33233183 Peri. 1.09146 +0.99755646 -0.06966220 a 2.0642142 Node 2.91912 +0.06328244 +0.86868341 e 0.5070165 Incl. 5.99554 +0.02960488 +0.49044501 P 2.97 H 26.2 G 0.15 U 9 Residuals in seconds of arc 060926 704 0.6+ 0.4- 060926 704 0.5+ 0.5- 060927 703 0.2- 0.1- 060926 704 1.5- 0.1+ 060927 703 1.0+ 0.9+ 060927 703 1.2- 1.1- 060926 704 1.0- 0.3- 060927 703 (3.5- 3.3-) Ephemeris: 2006 SN131 a,e,i = 2.06, 0.51, 6 q = 1.0176 Date TT R. A. (2000) Decl. Delta r Elong. Phase V 2006 09 22 20 58.04 -38 57.2 0.0279 1.020 124.1 54.6 20.5 2006 09 23 21 18.13 -35 08.2 0.0245 1.019 128.7 50.2 20.1 2006 09 24 21 41.80 -29 50.8 0.0213 1.018 134.9 44.2 19.6 2006 09 25 22 09.39 -22 32.2 0.0187 1.018 143.3 36.1 19.1 2006 09 26 22 40.87 -12 46.7 0.0167 1.018 153.9 25.6 18.5 2006 09 27 23 15.64 -00 49.4 0.0157 1.018 165.4 14.4 18.0 2006 09 28 23 52.41 +11 52.0 0.0158 1.018 168.3 11.6 17.9 2006 09 29 00 29.32 +23 15.4 0.0170 1.018 158.9 20.8 18.4 2006 09 30 01 04.51 +32 08.8 0.0191 1.018 149.0 30.4 19.0 2006 10 01 01 36.54 +38 31.7 0.0219 1.018 141.2 38.0 19.5 2006 10 02 02 04.73 +42 56.9 0.0251 1.019 135.4 43.7 19.9 2006 10 03 02 28.97 +45 59.1 0.0286 1.020 131.1 47.7 20.3 2006 10 04 02 49.56 +48 05.4 0.0323 1.021 127.9 50.6 20.7 2006 10 05 03 06.97 +49 34.2 0.0361 1.022 125.6 52.7 21.0 2006 10 06 03 21.67 +50 37.5 0.0400 1.023 123.9 54.2 21.2 2006 10 07 03 34.13 +51 23.4 0.0439 1.024 122.7 55.2 21.5 2006 10 08 03 44.73 +51 57.1 0.0479 1.025 121.9 55.9 21.7 2006 10 09 03 53.78 +52 22.0 0.0520 1.027 121.3 56.2 21.9 2006 10 10 04 01.54 +52 40.7 0.0561 1.029 120.9 56.4 22.0 2006 10 11 04 08.22 +52 54.6 0.0601 1.030 120.8 56.4 22.2 2006 10 12 04 13.99 +53 04.9 0.0642 1.032 120.7 56.2 22.3 Timothy B. Spahr (C) Copyright 2006 MPC M.P.E.C. 2006-S68


Enter an MPEC number in one of the following forms:
- 1997-B01 (the full form)
- J97B01 (the packed version of the full form)
- B01 (the abbreviated form)